sat.trackr.live / text

‹ back to catalog

STARLINK-4291

NORAD 52988 · 2022-076C

PAYLOAD ACTIVE UNKNOWN

§ Identity

Operator
Country
US
Launch date
2022-07-07
Launch site
AFETR
Launch vehicle
Mass (kg)
RCS (m²)

Purposes: comms

External: N2YO · Heavens-Above · Gunter

§ Orbital elements

Epoch: 2026-05-25T03:34:19.445952Z

Period
95.44 min
Inclination
53.2140°
Eccentricity
0.0000501
Mean motion
15.08848417 rev/d
Perigee alt
539.4 km
Apogee alt
540.1 km
Semi-major
6,917.9 km
B*
5.8717e-5
RAAN
110.8792°
Arg perigee
52.9449°
Mean anomaly
307.1589°
Rev number
21,438

§ Raw data

STARLINK-42911 52988U 22076C   26145.14883618  .00000647  00000+0  58717-4 0  99942 52988  53.2140 110.8792 0000501  52.9449 307.1589 15.08848417214383

JSON: /api/v1/satellites/52988 · /tle

For live sub-satellite position, see the globe view (requires WebGL).

§ Visibility from observer

Set your observer location to see the next 7 days of passes ≥ 10°. The values pass through the URL so the page stays shareable.

No JS? Fill the form by hand. The geolocation button needs JavaScript.